Location: Klickitat County Star Party
(45.8642°N, 120.6771°W)
Time: 03:44:40
(UTC-07:00)

SO-50 - Pass Details

Date: 03 June 2019
Orbit: 586 x 700 km, 64.6° (Epoch: 18 June)

Event Time Altitude Azimuth Distance (km) Brightness Sun altitude
Rises 21:39:39 0° 326° (NW) 3,093 ? -7.9°
Reaches altitude 10° 21:43:55 10° 1° (N) 2,166 ? -8.4°
Maximum altitude 21:45:25 11° 18° (NNE) 2,078 ? -8.6°
Drops below altitude 10° 21:46:54 10° 36° (NE) 2,155 ? -8.8°
Sets 21:51:06 0° 71° (ENE) 3,049 ? -9.3°
